Overview Statistics Trail Chart Weather Telemetry Raw packets
 

This is the latest recevied weather packets stored in our database for station/object SV9TNF-52. If no packets are shown the sender has not sent any weather packets the latest 10 day(s).

<< 72 73 74 75 76 77 78 >>
Time Temp. Humidity Pressure Rain* Wind** Luminosity Snow
1788166364 31.11° C 58% 1021.7 hPa 0 mm 4.92 m/s, 195° - -
1788166064 30° C 59% 1021.7 hPa 0 mm 8.05 m/s, 340° - -
1788165764 30.56° C 60% 1021.7 hPa 0 mm 4.47 m/s, 239° - -
1788165463 30° C 60% 1021.7 hPa 0 mm 6.26 m/s, 346° - -
1788165164 29.44° C 60% 1021.7 hPa 0 mm 6.71 m/s, 7° - -
1788164863 29.44° C 60% 1021.7 hPa 0 mm 4.47 m/s, 255° - -
1788164563 29.44° C 61% 1021.7 hPa 0 mm 5.81 m/s, 333° - -
1788164263 29.44° C 60% 1021.7 hPa 0 mm 11.18 m/s, 277° - -
1788163963 30° C 57% 1021.7 hPa 0 mm 5.81 m/s, 171° - -
1788163663 29.44° C 60% 1021.7 hPa 0 mm 4.02 m/s, 359° - -
1788163363 29.44° C 59% 1021.7 hPa 0 mm 8.49 m/s, 282° - -
1788163062 29.44° C 60% 1021.7 hPa 0 mm 3.58 m/s, 62° - -
1788162762 29.44° C 60% 1021.7 hPa 0 mm 2.68 m/s, 304° - -
1788162462 28.89° C 60% 1021.7 hPa 0 mm 8.49 m/s, 17° - -
1788162162 28.89° C 60% 1021.7 hPa 0 mm 6.71 m/s, 20° - -
1788161862 29.44° C 58% 1021.7 hPa 0 mm 6.71 m/s, 16° - -
1788161562 29.44° C 58% 1021.7 hPa 0 mm 4.92 m/s, 234° - -
1788161262 30.56° C 57% 1021.7 hPa 0 mm 4.02 m/s, 253° - -
1788160962 30.56° C 58% 1021.7 hPa 0 mm 2.68 m/s, 36° - -
1788160662 30.56° C 56% 1021.7 hPa 0 mm 4.92 m/s, 265° - -
1788160362 30.56° C 57% 1021 hPa 0 mm 3.13 m/s, 351° - -
1788160062 29.44° C 56% 1021 hPa 0 mm 5.81 m/s, 282° - -
1788159761 29.44° C 56% 1021 hPa 0 mm 5.81 m/s, 324° - -
1788159461 30.56° C 54% 1020.7 hPa 0 mm 4.47 m/s, 332° - -
1788159161 30.56° C 55% 1020.7 hPa 0 mm 4.02 m/s, 258° - -

* Rain latest hour (hover to see other rain measurements)
** Current wind speed in m/s (hover to see current wind gust speed)